BAW9226 LIMJ-LFSB

Flight info

Callsign BAW9226
Flight time 0h 57m
Altitude 18000
Route LAGEN1H LAGEN Q712 TESTO/N0467F380 DCT DEVOX DCT VOG DCT DESIP DCT PEPAG DCT ABESI N851 ELMUR T718 RIGVI DCT
Aircraft B772/H-SDE1E3FGHIJ3J5J6M1M2P2RWXYZ/LB1D1

Departure

Time 2026-04-21 07:38
Airport Genoa Cristoforo Colombo Airport (LIMJ)

Arrival

Time 2026-04-21 08:35
Airport EuroAirport Basel–Mulhouse–Freiburg (LFSB)
Time Latitude Longitude Altitude Speed Heading
2026-04-21 06:57 44.41429 8.84943 24 ft 0 kts 60°
2026-04-21 07:30 44.41425 8.84934 28 ft 4 kts 60°
2026-04-21 07:30 44.41411 8.84902 28 ft 4 kts 60°
2026-04-21 07:30 44.41398 8.84869 30 ft 4 kts 60°
2026-04-21 07:30 44.41387 8.84843 30 ft 4 kts 68°
2026-04-21 07:31 44.41381 8.84808 30 ft 4 kts 94°
2026-04-21 07:31 44.41386 8.84775 30 ft 1 kts 105°
2026-04-21 07:31 44.41386 8.84774 30 ft 0 kts 105°
2026-04-21 07:33 44.41382 8.84792 30 ft 5 kts 105°
2026-04-21 07:33 44.41370 8.84857 30 ft 8 kts 105°
2026-04-21 07:34 44.41340 8.84933 29 ft 10 kts 152°
2026-04-21 07:34 44.41270 8.84930 25 ft 7 kts 193°
2026-04-21 07:34 44.41212 8.84910 27 ft 10 kts 194°
2026-04-21 07:34 44.41138 8.84873 26 ft 13 kts 207°
2026-04-21 07:35 44.41065 8.84873 29 ft 12 kts 125°
2026-04-21 07:35 44.41036 8.84997 26 ft 16 kts 105°
2026-04-21 07:35 44.41004 8.85168 24 ft 20 kts 105°
2026-04-21 07:35 44.40964 8.85368 26 ft 22 kts 105°
2026-04-21 07:36 44.40922 8.85580 29 ft 24 kts 105°
2026-04-21 07:36 44.40876 8.85820 31 ft 27 kts 105°
2026-04-21 07:36 44.40873 8.85965 29 ft 13 kts 70°
2026-04-21 07:36 44.40857 8.86068 27 ft 10 kts 166°
2026-04-21 07:37 44.40835 8.86017 26 ft 8 kts 291°
2026-04-21 07:37 44.40848 8.85958 29 ft 20 kts 285°
2026-04-21 07:37 44.40957 8.85401 27 ft 97 kts 285°
2026-04-21 07:37 44.41196 8.84200 56 ft 154 kts 284°
2026-04-21 07:38 44.41511 8.82665 586 ft 168 kts 285°
2026-04-21 07:38 44.41769 8.81054 1335 ft 175 kts 272°
2026-04-21 07:38 44.41277 8.79424 1663 ft 192 kts 219°
2026-04-21 07:38 44.40025 8.78800 2184 ft 197 kts 178°
2026-04-21 07:39 44.38727 8.79380 2764 ft 198 kts 152°
2026-04-21 07:39 44.37507 8.80263 3308 ft 203 kts 152°
2026-04-21 07:39 44.36235 8.81181 3952 ft 202 kts 152°
2026-04-21 07:39 44.34895 8.81744 4384 ft 207 kts 181°
2026-04-21 07:40 44.33471 8.81593 4845 ft 210 kts 183°
2026-04-21 07:40 44.32016 8.81486 5395 ft 209 kts 182°
2026-04-21 07:40 44.30542 8.81395 5866 ft 214 kts 183°
2026-04-21 07:40 44.29048 8.81303 6371 ft 216 kts 183°
2026-04-21 07:41 44.27544 8.81211 6846 ft 217 kts 184°
2026-04-21 07:41 44.26022 8.81118 7274 ft 220 kts 184°
2026-04-21 07:41 44.24489 8.81025 7755 ft 221 kts 184°
2026-04-21 07:41 44.22950 8.80932 8213 ft 222 kts 185°
2026-04-21 07:42 44.21404 8.80838 8692 ft 223 kts 185°
2026-04-21 07:42 44.19850 8.80745 9138 ft 224 kts 186°
2026-04-21 07:42 44.18286 8.80651 9601 ft 225 kts 186°
2026-04-21 07:42 44.16715 8.80556 10022 ft 226 kts 187°
2026-04-21 07:43 44.15221 8.80054 10300 ft 221 kts 217°
2026-04-21 07:43 44.14160 8.78581 10600 ft 218 kts 243°
2026-04-21 07:43 44.13604 8.76569 10734 ft 230 kts 265°
2026-04-21 07:43 44.13585 8.74281 10939 ft 243 kts 275°
2026-04-21 07:44 44.13688 8.71888 11411 ft 252 kts 275°
2026-04-21 07:44 44.13810 8.69435 11991 ft 254 kts 280°
2026-04-21 07:44 44.14439 8.67155 12664 ft 256 kts 305°
2026-04-21 07:44 44.15678 8.65384 13496 ft 257 kts 323°
2026-04-21 07:45 44.17265 8.64201 14239 ft 262 kts 332°
2026-04-21 07:45 44.18973 8.63100 14557 ft 283 kts 332°
2026-04-21 07:45 44.20847 8.61899 14771 ft 310 kts 332°
2026-04-21 07:45 44.22885 8.60589 14991 ft 335 kts 332°
2026-04-21 07:46 44.25005 8.59223 15616 ft 345 kts 332°
2026-04-21 07:46 44.27236 8.57778 16437 ft 351 kts 332°
2026-04-21 07:46 44.29429 8.56351 17378 ft 354 kts 331°
2026-04-21 07:46 44.31658 8.54893 18406 ft 354 kts 331°
2026-04-21 07:47 44.33922 8.53407 19289 ft 356 kts 330°
2026-04-21 07:47 44.36142 8.51987 20081 ft 355 kts 334°
2026-04-21 07:47 44.38617 8.51303 20739 ft 374 kts 353°
2026-04-21 07:47 44.41255 8.51713 21478 ft 391 kts
2026-04-21 07:48 44.43815 8.53175 22261 ft 405 kts 21°
2026-04-21 07:48 44.46267 8.55221 22961 ft 414 kts 24°
2026-04-21 07:48 44.48729 8.57356 23692 ft 419 kts 23°
2026-04-21 07:48 44.51217 8.59503 24367 ft 421 kts 23°
2026-04-21 07:49 44.53730 8.61633 25042 ft 423 kts 22°
2026-04-21 07:49 44.56273 8.63754 25659 ft 428 kts 22°
2026-04-21 07:49 44.58845 8.65887 26188 ft 432 kts 22°
2026-04-21 07:49 44.61450 8.68035 26780 ft 435 kts 22°
2026-04-21 07:50 44.64079 8.70181 27377 ft 438 kts 22°
2026-04-21 07:50 44.65860 8.71635 27758 ft 440 kts 22°
2026-04-21 07:50 44.68521 8.73809 28274 ft 445 kts 22°
2026-04-21 07:50 44.71213 8.76014 28731 ft 450 kts 22°
2026-04-21 07:51 44.73927 8.78251 29229 ft 454 kts 22°
2026-04-21 07:51 44.76658 8.80509 29714 ft 457 kts 22°
2026-04-21 07:51 44.79411 8.82790 30128 ft 461 kts 22°
2026-04-21 07:51 44.82186 8.85092 30502 ft 464 kts 22°
2026-04-21 07:52 44.84971 8.87404 30907 ft 467 kts 23°
2026-04-21 07:52 44.87784 8.89742 31310 ft 470 kts 23°
2026-04-21 07:52 44.90606 8.92089 31639 ft 473 kts 23°
2026-04-21 07:52 44.93469 8.94386 31960 ft 472 kts 19°
2026-04-21 07:53 44.96458 8.96225 32235 ft 467 kts 13°
2026-04-21 07:53 44.99543 8.97618 32511 ft 464 kts
2026-04-21 07:53 45.02684 8.98550 32776 ft 460 kts
2026-04-21 07:53 45.05808 8.99240 33114 ft 460 kts
2026-04-21 07:54 45.08971 8.99916 33508 ft 459 kts
2026-04-21 07:54 45.12124 9.00595 33947 ft 458 kts
2026-04-21 07:54 45.15264 9.01283 34296 ft 457 kts
2026-04-21 07:54 45.18409 9.01985 34606 ft 457 kts
2026-04-21 07:55 45.21554 9.02695 34905 ft 458 kts
2026-04-21 07:55 45.24696 9.03412 35259 ft 457 kts
2026-04-21 07:55 45.27831 9.04130 35613 ft 456 kts
2026-04-21 07:55 45.30969 9.04849 35906 ft 457 kts
2026-04-21 07:56 45.34100 9.05567 36200 ft 457 kts
2026-04-21 07:56 45.37245 9.06289 36502 ft 457 kts
2026-04-21 07:56 45.40378 9.07009 36806 ft 456 kts
2026-04-21 07:56 45.43515 9.07730 37110 ft 457 kts
2026-04-21 07:57 45.46652 9.08452 37378 ft 457 kts
2026-04-21 07:57 45.49798 9.09177 37666 ft 457 kts
2026-04-21 07:57 45.52937 9.09901 37923 ft 458 kts
2026-04-21 07:57 45.56100 9.10630 37960 ft 461 kts
2026-04-21 07:58 45.62435 9.11996 38011 ft 456 kts 359°
2026-04-21 07:58 45.68695 9.12039 37994 ft 446 kts 348°
2026-04-21 07:59 45.74839 9.11007 37996 ft 445 kts 347°
2026-04-21 07:59 45.80993 9.09951 38019 ft 446 kts 348°
2026-04-21 08:00 45.87165 9.08934 37984 ft 447 kts 348°
2026-04-21 08:00 45.93354 9.07927 37984 ft 447 kts 348°
2026-04-21 08:01 45.99531 9.06916 37996 ft 447 kts 348°
2026-04-21 08:02 46.08845 9.05440 38000 ft 452 kts 348°
2026-04-21 08:02 46.15089 9.04447 37997 ft 451 kts 348°
2026-04-21 08:03 46.21325 9.03544 38010 ft 450 kts 349°
2026-04-21 08:03 46.27570 9.02727 38009 ft 451 kts 349°
2026-04-21 08:04 46.33832 9.01895 38005 ft 453 kts 349°
2026-04-21 08:04 46.40105 9.01035 38015 ft 453 kts 349°
2026-04-21 08:05 46.46386 9.00188 38048 ft 455 kts 349°
2026-04-21 08:05 46.52692 8.99347 38033 ft 454 kts 349°
2026-04-21 08:06 46.58984 8.98506 38002 ft 453 kts 349°
2026-04-21 08:06 46.65196 8.97663 38051 ft 452 kts 349°
2026-04-21 08:07 46.71456 8.96804 38061 ft 452 kts 349°
2026-04-21 08:07 46.77714 8.95941 38075 ft 451 kts 349°
2026-04-21 08:08 46.83980 8.95080 38080 ft 453 kts 350°
2026-04-21 08:08 46.90237 8.94215 38073 ft 452 kts 350°
2026-04-21 08:09 46.96506 8.93381 37979 ft 455 kts 350°
2026-04-21 08:09 46.99688 8.92954 37282 ft 461 kts 350°
2026-04-21 08:09 47.02851 8.92532 36867 ft 454 kts 350°
2026-04-21 08:09 47.05977 8.92114 36408 ft 448 kts 349°
2026-04-21 08:10 47.09071 8.91699 35896 ft 444 kts 349°
2026-04-21 08:10 47.12107 8.91169 35419 ft 434 kts 343°
2026-04-21 08:10 47.14994 8.90085 34954 ft 424 kts 337°
2026-04-21 08:10 47.17744 8.88619 34464 ft 417 kts 333°
2026-04-21 08:11 47.20349 8.86832 33953 ft 409 kts 326°
2026-04-21 08:11 47.22784 8.84724 33405 ft 403 kts 324°
2026-04-21 08:11 47.25175 8.82603 32885 ft 399 kts 324°
2026-04-21 08:11 47.27534 8.80503 32417 ft 394 kts 324°
2026-04-21 08:12 47.29871 8.78427 31908 ft 391 kts 324°
2026-04-21 08:12 47.32189 8.76374 31406 ft 387 kts 324°
2026-04-21 08:12 47.34484 8.74346 30915 ft 383 kts 324°
2026-04-21 08:12 47.36762 8.72335 30413 ft 379 kts 324°
2026-04-21 08:13 47.39014 8.70348 29880 ft 375 kts 324°
2026-04-21 08:13 47.41242 8.68380 29310 ft 370 kts 324°
2026-04-21 08:13 47.43436 8.66442 28799 ft 365 kts 324°
2026-04-21 08:13 47.45599 8.64530 28299 ft 359 kts 324°
2026-04-21 08:14 47.47727 8.62646 27844 ft 354 kts 324°
2026-04-21 08:14 47.49823 8.60789 27393 ft 350 kts 323°
2026-04-21 08:14 47.51897 8.58947 26909 ft 346 kts 323°
2026-04-21 08:14 47.53950 8.57123 26433 ft 342 kts 323°
2026-04-21 08:15 47.55977 8.55320 25979 ft 338 kts 323°
2026-04-21 08:15 47.57985 8.53532 25515 ft 335 kts 323°
2026-04-21 08:15 47.59972 8.51762 25076 ft 332 kts 323°
2026-04-21 08:15 47.61947 8.50004 24633 ft 329 kts 323°
2026-04-21 08:16 47.63900 8.48262 24206 ft 327 kts 323°
2026-04-21 08:16 47.65841 8.46530 23777 ft 324 kts 323°
2026-04-21 08:16 47.67659 8.44600 23256 ft 318 kts 315°
2026-04-21 08:16 47.69271 8.42386 22795 ft 314 kts 312°
2026-04-21 08:17 47.70751 8.40035 22367 ft 309 kts 307°
2026-04-21 08:17 47.72034 8.37502 21948 ft 305 kts 304°
2026-04-21 08:17 47.73257 8.34945 21543 ft 302 kts 304°
2026-04-21 08:17 47.74463 8.32398 21144 ft 300 kts 304°
2026-04-21 08:18 47.75659 8.29873 20736 ft 298 kts 304°
2026-04-21 08:18 47.76848 8.27366 20344 ft 295 kts 304°
2026-04-21 08:18 47.78029 8.24881 19953 ft 293 kts 304°
2026-04-21 08:18 47.79204 8.22412 19567 ft 291 kts 304°
2026-04-21 08:19 47.80371 8.19960 19191 ft 290 kts 304°
2026-04-21 08:19 47.81531 8.17523 18819 ft 288 kts 304°
2026-04-21 08:19 47.82686 8.15095 18437 ft 287 kts 304°
2026-04-21 08:19 47.83835 8.12678 18015 ft 286 kts 304°
2026-04-21 08:20 47.84981 8.10266 17614 ft 285 kts 304°
2026-04-21 08:20 47.86133 8.07838 17239 ft 289 kts 304°
2026-04-21 08:20 47.87315 8.05345 16861 ft 301 kts 304°
2026-04-21 08:20 47.88536 8.02772 16440 ft 306 kts 304°
2026-04-21 08:21 47.89762 8.00184 16010 ft 305 kts 304°
2026-04-21 08:21 47.90976 7.97616 15642 ft 301 kts 304°
2026-04-21 08:21 47.92180 7.95070 15240 ft 300 kts 304°
2026-04-21 08:21 47.93384 7.92534 14844 ft 300 kts 304°
2026-04-21 08:22 47.94591 7.90002 14460 ft 299 kts 305°
2026-04-21 08:22 47.95794 7.87476 14083 ft 298 kts 305°
2026-04-21 08:22 47.96996 7.84954 13676 ft 298 kts 305°
2026-04-21 08:22 47.98197 7.82430 13244 ft 298 kts 305°
2026-04-21 08:23 47.99393 7.79909 12845 ft 297 kts 305°
2026-04-21 08:23 48.00584 7.77398 12450 ft 296 kts 305°
2026-04-21 08:23 48.01771 7.74897 12042 ft 295 kts 305°
2026-04-21 08:23 48.02950 7.72405 11670 ft 293 kts 305°
2026-04-21 08:24 48.04125 7.69920 11297 ft 292 kts 305°
2026-04-21 08:24 48.05294 7.67446 10887 ft 292 kts 305°
2026-04-21 08:24 48.06448 7.64996 10522 ft 290 kts 305°
2026-04-21 08:24 48.07604 7.62542 10405 ft 281 kts 305°
2026-04-21 08:25 48.08695 7.60224 10255 ft 271 kts 304°
2026-04-21 08:25 48.09774 7.57928 10153 ft 261 kts 304°
2026-04-21 08:25 48.10708 7.55666 9880 ft 251 kts 290°
2026-04-21 08:25 48.10901 7.53113 9630 ft 249 kts 263°
2026-04-21 08:26 48.10302 7.50657 9337 ft 258 kts 240°
2026-04-21 08:26 48.09122 7.48638 9038 ft 267 kts 221°
2026-04-21 08:26 48.07458 7.47374 8703 ft 270 kts 201°
2026-04-21 08:26 48.05682 7.46567 8545 ft 263 kts 199°
2026-04-21 08:27 48.03958 7.45810 8411 ft 254 kts 199°
2026-04-21 08:27 48.02300 7.45051 8300 ft 244 kts 198°
2026-04-21 08:27 48.00659 7.44439 8032 ft 242 kts 191°
2026-04-21 08:27 47.99008 7.44026 7784 ft 240 kts 190°
2026-04-21 08:28 47.97368 7.43640 7516 ft 238 kts 189°
2026-04-21 08:28 47.95729 7.43249 7249 ft 241 kts 189°
2026-04-21 08:28 47.94060 7.42846 6951 ft 246 kts 188°
2026-04-21 08:28 47.92361 7.42427 6591 ft 248 kts 188°
2026-04-21 08:29 47.90659 7.42004 6273 ft 248 kts 188°
2026-04-21 08:29 47.88963 7.41580 5985 ft 247 kts 187°
2026-04-21 08:29 47.87277 7.41155 5689 ft 245 kts 187°
2026-04-21 08:29 47.85608 7.40734 5402 ft 242 kts 187°
2026-04-21 08:30 47.83957 7.40318 5126 ft 239 kts 187°
2026-04-21 08:30 47.82344 7.39908 5009 ft 229 kts 187°
2026-04-21 08:30 47.80799 7.39516 4844 ft 222 kts 187°
2026-04-21 08:30 47.79291 7.39259 4580 ft 213 kts 172°
2026-04-21 08:31 47.77943 7.39858 4401 ft 197 kts 156°
2026-04-21 08:31 47.76682 7.40602 4165 ft 191 kts 154°
2026-04-21 08:31 47.75493 7.41394 3924 ft 184 kts 152°
2026-04-21 08:31 47.74342 7.42197 3656 ft 182 kts 152°
2026-04-21 08:32 47.73213 7.42990 3444 ft 178 kts 152°
2026-04-21 08:32 47.72083 7.43785 3156 ft 180 kts 152°
2026-04-21 08:32 47.70969 7.44556 2920 ft 174 kts 152°
2026-04-21 08:32 47.69879 7.45317 2713 ft 172 kts 152°
2026-04-21 08:33 47.68788 7.46082 2455 ft 173 kts 152°
2026-04-21 08:33 47.67748 7.46809 2187 ft 157 kts 153°
2026-04-21 08:33 47.67112 7.47257 2086 ft 148 kts 153°
2026-04-21 08:33 47.65877 7.48125 1815 ft 150 kts 153°
2026-04-21 08:34 47.65254 7.48556 1645 ft 148 kts 153°
2026-04-21 08:34 47.64332 7.49196 1429 ft 143 kts 153°
2026-04-21 08:34 47.63140 7.50040 1213 ft 146 kts 153°
2026-04-21 08:34 47.62518 7.50474 1084 ft 147 kts 154°
2026-04-21 08:35 47.61302 7.51314 872 ft 138 kts 155°
2026-04-21 08:35 47.60755 7.51695 887 ft 117 kts 155°
2026-04-21 08:35 47.60210 7.52073 893 ft 64 kts 154°
2026-04-21 08:35 47.59882 7.52301 892 ft 22 kts 155°
2026-04-21 08:36 47.59833 7.52393 893 ft 10 kts 86°
2026-04-21 08:36 47.59854 7.52473 894 ft 6 kts 65°
2026-04-21 08:36 47.59871 7.52528 894 ft 6 kts 65°
2026-04-21 08:36 47.59883 7.52567 894 ft 0 kts 65°
2026-04-21 08:37 47.59895 7.52605 894 ft 8 kts 65°
2026-04-21 08:37 47.59939 7.52646 894 ft 8 kts 359°
2026-04-21 08:38 47.59992 7.52616 894 ft 8 kts 344°
2026-04-21 08:38 47.60030 7.52666 894 ft 8 kts 71°
2026-04-21 08:38 47.60051 7.52747 894 ft 8 kts 77°
2026-04-21 08:38 47.60043 7.52830 894 ft 8 kts 77°
2026-04-21 08:39 47.60042 7.52897 896 ft 5 kts 114°
2026-04-21 08:39 47.60024 7.52946 894 ft 5 kts 119°
2026-04-21 08:39 47.59996 7.52981 894 ft 5 kts 153°
2026-04-21 08:39 47.59991 7.52984 894 ft 0 kts 156°